User: anonymous   Login
Location: Unspecified
(51.2667°N, 0.0000°E)
Time: 04:18:39
(UTC+00:00)
Language:

nSIGHT-1 - Orbit

View from above orbital plane
View from above orbital plane
View from above satellite
View from above satellite

Ground track
Ground track

The orbit data is extracted from the following two-line orbital elements,

1 42726U 98067MF  19258.41010757  .00025230  00000-0  17276-3 0  9999
2 42726  51.6355 213.9244 0004979 137.3457 222.7930 15.74579527131789
Epoch (UTC): 15 September 2019 09:50:33
Eccentricity: 0.0004979
inclination: 51.6355°
perigee height: 342 km
apogee height: 349 km
right ascension of ascending node: 213.9244°
argument of perigee: 137.3457°
revolutions per day: 15.74579527
mean anomaly at epoch: 222.7930°
orbit number at epoch: 13178

The dashed part of the orbit path shows where the satellite is in the earth's shadow,  

DLR